Stations météo

réclame
Mon MeteoGroup
St-Auban-Sur-Durance, France (7588): Température de l'air & dewpoint: 25.05.2020 02:00:00 - 31.05.2020 02:00:00 (CEST)St-Auban-Sur-Durance, France (7588): Température de l'air 5cm: 25.05.2020 02:00:00 - 31.05.2020 02:00:00 (CEST)St-Auban-Sur-Durance, France (7588): Température de l'air -20cm: 25.05.2020 02:00:00 - 31.05.2020 02:00:00 (CEST)St-Auban-Sur-Durance, France (7588): Vitesse du vent & gusts: 25.05.2020 02:00:00 - 31.05.2020 02:00:00 (CEST)St-Auban-Sur-Durance, France (7588): Direction du vent: 25.05.2020 02:00:00 - 31.05.2020 02:00:00 (CEST)St-Auban-Sur-Durance, France (7588): reduced air pressure: 25.05.2020 02:00:00 - 31.05.2020 02:00:00 (CEST)St-Auban-Sur-Durance, France (7588): visibility: 25.05.2020 02:00:00 - 31.05.2020 02:00:00 (CEST)St-Auban-Sur-Durance, France (7588): Ensoleillement: 25.05.2020 02:00:00 - 31.05.2020 02:00:00 (CEST)St-Auban-Sur-Durance, France (7588): Quantités de précipitations: 25.05.2020 02:00:00 - 31.05.2020 02:00:00 (CEST)
Date & Time tt [°C] td [°C] tt 5cm [°C] tt -20cm [°C] ff [km/h] ff [knt] fx [km/h] fx [knt] dd ppp [hPa] vv [km] sd [min] rr [mm]
31.05.2020 02:00:00 11,4 9,5 11,4 21,2 2 1 19 11 NE 1017,3 20 0 0,0
31.05.2020 01:00:00 12,5 10,2 13,1 21,4 9 5 23 12 ESE 1017,6 20 0 0,0
31.05.2020 00:00:00 13,2 10,2 13,7 21,5 12 6 22 12 SE 1017,3 20 0 0,0
30.05.2020 23:00:00 14,6 10,0 15,1 21,6 8 4 28 15 SE 1016,9 20 0 0,0
30.05.2020 22:00:00 16,6 9,8 17,2 21,6 5 3 25 13 E 1015,8 20 0 0,0
30.05.2020 21:00:00 17,7 10,3 18,6 21,7 12 6 33 18 SSE 1014,3 20 5 0,0
30.05.2020 20:00:00 19,3 10,8 18,4 21,6 10 6 22 12 SSE 1013,3 20 20 0,0
30.05.2020 19:00:00 19,5 9,9 21,1 21,5 17 9 47 25 S 1012,8 20 6 0,0
30.05.2020 18:00:00 23,1 8,4 25,2 21,3 23 12 29 16 SW 1012,0 20 27 0,0
30.05.2020 17:00:00 22,6 8,7 25,1 21,0 16 9 32 17 SSW 1012,6 20 20 0,0
30.05.2020 16:00:00 23,7 8,1 26,4 20,7 19 11 34 18 SW 1012,8 19 39 0,0
30.05.2020 15:00:00 22,2 8,7 29,2 20,4 17 9 29 16 SSW 1013,6 20 57 0,0
30.05.2020 14:00:00 21,6 10,1 28,8 20,1 16 9 28 15 SW 1014,3 20 60 0,0
30.05.2020 13:00:00 20,3 11,0 21,3 19,9 14 8 21 12 SSW 1015,2 20 40 0,0
30.05.2020 12:00:00 19,9 10,9 27,6 19,8 6 3 20 11 E 1015,7 20 60 0,0
30.05.2020 11:00:00 18,2 11,5 20,5 19,8 8 4 18 10 NE 1016,6 20 46 0,0
30.05.2020 10:00:00 15,3 12,1 17,5 19,8 5 3 14 8 NNE 1017,7 20 0 0,0
30.05.2020 09:00:00 13,6 12,0 15,4 19,9 6 4 13 7 NNE 1018,3 20 0 0,0
30.05.2020 08:00:00 12,6 12,1 13,5 20,0 3 2 7 4 E 1018,6 15 0 0,0
30.05.2020 07:00:00 11,5 11,2 12,2 20,2 3 2 6 3 ENE 1019,0 4,4 0 0,0
30.05.2020 06:00:00 10,6 10,3 10,5 20,4 0 0 10 5 N 1019,0 11 0 0,0
30.05.2020 05:00:00 10,4 9,9 10,9 20,5 4 2 7 4 WNW 1019,2 9 0 0,0
30.05.2020 04:00:00 11,2 10,7 11,3 20,6 0 0 6 3 N 1019,3 10 0 0,0
30.05.2020 03:00:00 12,3 11,7 13,3 20,8 4 2 7 4 N 1019,3 18 0 0,0
30.05.2020 02:00:00 12,7 12,1 13,9 20,9 2 1 6 3 NE 1019,4 18 0 0,0
30.05.2020 01:00:00 12,8 12,0 13,7 21,0 0 0 4 2 N 1019,7 18 0 0,0
30.05.2020 00:00:00 13,0 12,4 14,1 21,1 0 0 3 2 N 1019,9 10 0 0,0
29.05.2020 23:00:00 13,4 12,3 14,6 21,2 3 2 16 8 SSE 1019,9 20 0 0,0
29.05.2020 22:00:00 13,4 12,3 14,7 21,3 11 6 15 8 SW 1019,6 20 0 0,0
29.05.2020 21:00:00 13,9 12,5 15,0 21,3 10 6 15 8 SW 1019,1 20 37 0,0
29.05.2020 20:00:00 14,4 13,1 15,3 21,4 12 6 21 11 SW 1018,9 20 17 0,2
29.05.2020 19:00:00 14,4 12,9 15,1 21,5 9 5 22 12 SSW 1018,8 20 0 1,4
29.05.2020 18:00:00 14,6 13,0 15,2 21,5 14 8 25 13 WSW 1018,9 16 0 0,6
29.05.2020 17:00:00 15,8 12,7 15,9 21,5 14 8 26 14 WSW 1018,0 20 0 0,2
29.05.2020 16:00:00 16,8 11,7 15,9 21,4 10 5 44 24 SSE 1017,5 20 0 0,2
29.05.2020 15:00:00 19,7 11,5 22,1 21,2 18 10 56 30 SE 1016,3 20 1 0,0
29.05.2020 14:00:00 21,1 12,2 24,6 21,1 24 13 41 22 S 1015,9 20 24 0,0
29.05.2020 13:00:00 20,7 12,4 24,3 21,0 24 13 38 20 S 1015,9 20 13 0,0
29.05.2020 12:00:00 19,8 12,8 23,1 20,9 21 11 31 17 SW 1016,2 20 18 0,0
29.05.2020 11:00:00 20,7 11,6 27,7 20,9 12 7 20 11 SW 1015,9 20 60 0,0
29.05.2020 10:00:00 19,2 10,7 23,4 21,0 4 2 11 6 ESE 1016,1 20 60 0,0
29.05.2020 09:00:00 16,6 10,9 19,8 21,1 4 2 16 8 ESE 1016,7 20 60 0,0
29.05.2020 08:00:00 13,7 10,7 14,2 21,3 3 2 9 5 E 1017,6 20 53 0,0
29.05.2020 07:00:00 11,1 10,0 9,4 21,5 5 3 8 4 NE 1018,4 20 27 0,0
29.05.2020 06:00:00 9,4 8,3 9,5 21,7 3 1 5 3 ESE 1018,9 20 0 0,0
29.05.2020 05:00:00 10,1 9,0 9,8 21,8 2 1 6 3 NE 1019,1 20 0 0,0
29.05.2020 04:00:00 10,5 9,1 10,5 22,1 0 0 9 5 N 1019,3 20 0 0,0
29.05.2020 03:00:00 11,1 9,5 11,1 22,2 4 2 7 4 ENE 1019,5 20 0 0,0
29.05.2020 02:00:00 12,0 9,6 12,0 22,4 4 2 7 4 E 1020,2 20 0 0,0
29.05.2020 01:00:00 13,5 10,1 13,4 22,5 0 0 11 6 N 1020,5 20 0 0,0
29.05.2020 00:00:00 15,4 10,4 14,7 22,7 6 4 23 12 W 1020,5 20 0 0,0
28.05.2020 23:00:00 17,4 10,5 17,5 22,7 9 5 24 13 WSW 1020,4 20 0 0,0
28.05.2020 22:00:00 18,7 11,0 18,2 22,8 8 5 21 12 SSE 1019,8 20 0 0,0
28.05.2020 21:00:00 20,4 11,9 20,8 22,7 13 7 30 16 ESE 1018,5 20 18 0,0
28.05.2020 20:00:00 24,8 9,5 26,5 22,6 22 12 37 20 SW 1016,7 20 60 0,0
28.05.2020 19:00:00 25,0 8,5 26,3 22,4 19 11 36 19 SSW 1016,3 20 29 0,0
28.05.2020 18:00:00 24,9 8,8 27,2 22,2 22 12 35 19 SSW 1017,1 20 48 0,0
28.05.2020 17:00:00 25,3 11,1 31,6 21,9 22 12 36 19 SSW 1017,8 20 60 0,0
28.05.2020 16:00:00 25,1 12,3 32,1 21,5 18 10 31 17 SSW 1018,7 20 60 0,0
28.05.2020 15:00:00 24,5 11,4 32,1 21,2 19 10 33 18 SSW 1019,7 20 60 0,0
28.05.2020 14:00:00 24,0 13,2 31,8 20,9 15 8 25 13 SSW 1020,6 20 60 0,0
28.05.2020 13:00:00 22,9 11,3 30,9 20,6 10 6 21 12 SSW 1021,7 20 60 0,0
28.05.2020 12:00:00 21,5 10,9 29,7 20,5 9 5 18 10 S 1022,8 20 60 0,0
28.05.2020 11:00:00 20,4 11,6 26,6 20,4 8 4 17 9 SSW 1023,7 20 60 0,0
28.05.2020 10:00:00 18,7 11,3 23,0 20,5 4 2 10 5 ESE 1024,8 20 60 0,0
28.05.2020 09:00:00 16,0 10,3 19,3 20,6 5 3 10 5 ENE 1026,0 20 60 0,0
28.05.2020 08:00:00 13,4 9,6 13,9 20,7 5 3 16 9 ENE 1027,0 20 60 0,0
28.05.2020 07:00:00 10,9 9,2 9,2 21,0 2 1 11 6 NE 1027,8 20 27 0,0
28.05.2020 06:00:00 9,3 8,1 9,2 21,2 3 2 7 4 NNE 1028,2 20 0 0,0
28.05.2020 05:00:00 9,6 8,0 9,4 21,4 8 4 9 5 NNE 1028,2 20 0 0,0
28.05.2020 04:00:00 10,0 7,8 9,9 21,6 0 0 6 3 N 1028,3 20 0 0,0
28.05.2020 03:00:00 11,0 8,2 10,8 21,8 3 2 6 3 SSE 1028,4 20 0 0,0
28.05.2020 02:00:00 11,7 8,2 11,3 21,9 3 1 8 4 SE 1028,6 20 0 0,0
28.05.2020 01:00:00 13,0 8,3 13,2 22,1 3 2 11 6 NNW 1028,4 20 0 0,0
28.05.2020 00:00:00 14,2 8,4 13,5 22,2 2 1 12 7 WNW 1028,2 20 0 0,0
27.05.2020 23:00:00 16,3 8,3 15,2 22,3 5 3 26 14 SSE 1027,7 20 0 0,0
27.05.2020 22:00:00 19,0 8,3 19,1 22,3 15 8 31 17 SSW 1026,7 20 0 0,0
27.05.2020 21:00:00 20,0 9,5 20,9 22,3 18 10 26 14 SW 1025,7 20 0 0,0
27.05.2020 20:00:00 21,1 10,3 22,0 22,3 14 8 24 13 SW 1025,7 20 0 0,0
27.05.2020 19:00:00 21,5 9,7 22,8 22,2 9 5 21 11 SSW 1025,7 20 0 0,0
27.05.2020 18:00:00 22,5 8,9 25,7 22,1 13 7 23 13 SSW 1025,9 20 15 0,0
27.05.2020 17:00:00 23,0 8,7 26,0 21,9 14 7 27 15 SSW 1026,1 20 22 0,0
27.05.2020 16:00:00 22,5 7,5 27,3 21,7 16 8 31 17 SSW 1026,8 20 29 0,0
27.05.2020 15:00:00 22,7 8,4 26,2 21,5 18 10 35 19 S 1027,0 20 37 0,0
27.05.2020 14:00:00 22,6 8,3 25,2 21,4 17 9 31 17 SSW 1027,4 20 39 0,0
27.05.2020 13:00:00 20,8 10,6 25,3 21,3 14 8 27 15 SSW 1028,0 20 20 0,0
27.05.2020 12:00:00 21,4 10,5 26,3 21,2 14 8 23 12 SSW 1027,8 20 25 0,0
27.05.2020 11:00:00 19,9 10,3 23,3 21,2 6 3 11 6 SSW 1027,9 20 29 0,0
27.05.2020 10:00:00 17,9 10,0 20,4 21,3 5 3 9 5 NNE 1028,2 20 5 0,0
27.05.2020 09:00:00 16,4 10,5 17,7 21,4 5 3 10 5 NNE 1027,8 20 15 0,0
27.05.2020 08:00:00 15,2 11,0 15,7 21,5 4 2 11 6 ENE 1027,8 20 13 0,0
27.05.2020 07:00:00 13,9 11,1 14,9 21,6 7 4 9 5 NNE 1027,7 20 0 0,0
27.05.2020 06:00:00 13,6 11,3 14,8 21,8 5 3 10 6 NE 1027,2 20 0 0,0
27.05.2020 05:00:00 13,7 11,6 14,0 21,9 8 5 13 7 NNE 1027,0 20 0 0,0
27.05.2020 04:00:00 13,2 11,4 13,2 22,1 8 4 9 5 NE 1026,9 20 0 0,0
27.05.2020 03:00:00 13,2 10,9 13,5 22,3 6 3 9 5 NNE 1026,9 20 0 0,0
27.05.2020 02:00:00 14,1 10,9 14,4 22,4 4 2 5 3 ENE 1026,6 20 0 0,0
27.05.2020 01:00:00 14,5 11,1 15,1 22,5 2 1 7 4 S 1026,4 20 0 0,0
27.05.2020 00:00:00 15,5 12,3 16,1 22,7 5 3 11 6 NNW 1025,8 20 0 0,0
26.05.2020 23:00:00 17,3 12,8 17,3 22,7 5 3 10 5 NW 1025,0 20 0 0,0
26.05.2020 22:00:00 18,5 14,8 18,9 22,7 2 1 10 5 NE 1023,9 20 0 0,0
26.05.2020 21:00:00 19,9 15,7 21,2 22,7 8 4 13 7 N 1022,5 20 0 0,0
26.05.2020 20:00:00 23,2 14,2 22,5 22,6 5 3 25 13 E 1021,9 20 0 0,0
26.05.2020 19:00:00 25,1 10,9 26,6 22,4 16 9 29 16 SSW 1021,4 20 30 0,0
26.05.2020 18:00:00 26,2 10,4 32,3 22,2 18 10 29 15 SSW 1021,3 20 60 0,0
26.05.2020 17:00:00 26,3 9,2 33,5 21,8 16 9 32 18 S 1021,4 20 60 0,0
26.05.2020 16:00:00 26,3 8,7 33,2 21,5 18 10 32 17 SSW 1021,8 20 60 0,0
26.05.2020 15:00:00 26,3 8,7 34,0 21,1 18 10 31 17 SSW 1022,3 20 60 0,0
26.05.2020 14:00:00 25,7 9,1 33,8 20,8 17 9 31 17 SSW 1022,7 20 60 0,0
26.05.2020 13:00:00 25,5 10,9 33,8 20,6 16 9 23 12 SSW 1023,1 20 60 0,0
26.05.2020 12:00:00 23,8 9,4 31,1 20,4 8 4 20 11 NNE 1023,5 20 56 0,0
26.05.2020 11:00:00 21,8 10,9 26,9 20,5 12 7 29 16 NNE 1024,2 20 60 0,0
26.05.2020 10:00:00 19,9 10,0 23,8 20,5 16 9 32 18 NNE 1024,4 20 60 0,0
26.05.2020 09:00:00 18,2 9,0 21,8 20,6 17 9 32 17 NNE 1024,4 20 60 0,0
26.05.2020 08:00:00 16,7 9,1 18,1 20,8 18 10 33 18 NE 1024,4 20 60 0,0
26.05.2020 07:00:00 15,5 8,2 15,8 21,0 14 8 39 21 NE 1024,6 20 25 0,0
26.05.2020 06:00:00 15,5 8,2 15,6 21,2 14 8 31 17 ENE 1024,2 20 0 0,0
26.05.2020 05:00:00 15,7 8,7 16,2 21,4 15 8 32 18 NE 1024,0 20 0 0,0
26.05.2020 04:00:00 15,9 9,3 16,1 21,5 10 5 23 13 NE 1024,0 20 0 0,0
26.05.2020 03:00:00 16,1 9,3 16,4 21,6 10 6 27 15 ENE 1024,0 20 0 0,0
26.05.2020 02:00:00 17,7 9,1 18,1 21,8 9 5 26 14 ENE 1023,8 20 0 0,0
26.05.2020 01:00:00 18,8 9,3 19,1 21,9 14 8 29 16 NNE 1023,7 20 0 0,0
26.05.2020 00:00:00 19,0 9,7 16,0 22,0 6 4 15 8 E 1023,7 20 0 0,0
25.05.2020 23:00:00 17,3 10,7 16,2 22,1 2 1 13 7 S 1023,9 20 0 0,0
25.05.2020 22:00:00 18,8 10,9 17,5 22,1 6 4 13 7 NW 1023,2 20 0 0,0
25.05.2020 21:00:00 21,0 11,3 20,4 22,1 5 3 21 12 WNW 1022,2 20 7 0,0
25.05.2020 20:00:00 23,8 10,5 24,5 22,0 17 9 28 15 SSW 1021,3 20 46 0,0
25.05.2020 19:00:00 24,4 10,3 25,8 21,8 16 9 29 16 SW 1021,4 20 29 0,0
25.05.2020 18:00:00 25,8 10,4 27,3 21,5 24 13 33 18 SW 1021,6 20 45 0,0
25.05.2020 17:00:00 25,6 11,4 27,4 21,2 22 12 34 18 SSW 1022,0 20 51 0,0
25.05.2020 16:00:00 25,9 10,9 29,0 20,8 13 7 29 16 SW 1022,5 20 50 0,0
25.05.2020 15:00:00 25,3 10,3 28,3 20,5 17 9 28 15 SW 1023,0 20 48 0,0
25.05.2020 14:00:00 25,1 10,9 32,6 20,1 11 6 29 16 W 1023,5 20 60 0,0
25.05.2020 13:00:00 23,9 10,6 32,3 19,9 5 3 16 9 SSE 1024,2 20 60 0,0
25.05.2020 12:00:00 22,5 9,3 29,7 19,8 10 5 26 14 NE 1024,8 20 60 0,0
25.05.2020 11:00:00 20,6 9,5 23,4 19,9 13 7 30 16 NE 1025,6 20 60 0,0
25.05.2020 10:00:00 17,9 8,2 22,1 19,9 16 9 44 24 NE 1026,2 20 53 0,0
25.05.2020 09:00:00 16,5 7,9 19,7 20,1 19 10 38 21 NE 1026,5 20 60 0,0
25.05.2020 08:00:00 14,6 7,4 15,6 20,2 15 8 32 17 NE 1026,9 20 60 0,0
25.05.2020 07:00:00 13,2 7,0 13,3 20,4 14 8 31 17 NE 1026,8 20 8 0,0
25.05.2020 06:00:00 13,1 6,9 13,4 20,6 15 8 31 17 NE 1026,7 20 0 0,0
25.05.2020 05:00:00 13,4 6,9 13,9 20,8 14 7 27 14 NE 1026,7 20 0 0,0
25.05.2020 04:00:00 13,8 6,9 14,1 21,0 11 6 28 15 NE 1026,6 20 0 0,0
25.05.2020 03:00:00 14,3 7,3 13,5 21,2 9 5 24 13 ENE 1026,4 20 0 0,0
25.05.2020 02:00:00 13,8 7,3 13,2 21,3 8 4 18 10 ENE 1026,4 20 0 0,0

tt = Température de l'air
td = dewpoint
tt 5cm = Température de l'air 5cm
tt -20cm = Température de l'air -20cm
ff = Vitesse du vent
fx = gusts
dd = Direction du vent
ppp = reduced air pressure
vv = visibility
sd = Ensoleillement
rr = Quantités de précipitations

stations d'obs. à proximité